[[{"header":{"parameterUnit":"m.s-1","parameterCategory":1,"la1":30.2991,"la2":30.254,"lo1":-89.0895,"lo2":-89.0444,"dy":0.0017,"dx":0.0017,"nx":28,"ny":28,"refTime":"2025-04-13T21:00:00:Z","depth":0,"parameterNumber":2,"parameterNumberName":"U-component_of_WINDS"},"data":[0,0,0,0,0,0,0,0,0,0,0,0,0,0,0,0,0,0,0,0,0,0,0,0,0,0,0,0,0,0,0,0,0,0,0,0,0,0,0,0,0,0,0,0,0,0,0,0,0,0,0,0,0,0,0,0,0,0,3.1536,3.1537,0,3.1649,3.165,3.1651,3.1633,3.1631,3.1629,3.1628,3.174,3.1745,3.1749,0,0,0,0,0,0,0,0,0,0,0,0,0,3.1299,3.1303,3.1536,3.1537,3.1539,3.1649,3.165,3.1652,3.1634,3.1631,3.1629,3.1627,3.1738,3.1744,3.175,0,0,0,0,0,0,0,0,0,0,0,0,0,3.1406,3.1305,3.1536,3.1543,3.1545,3.1648,3.165,3.1652,3.1634,3.1631,3.1628,3.1626,3.1737,3.1744,3.1751,3.1853,0,0,3.1773,3.1776,0,0,0,0,0,0,0,0,3.14,3.1414,3.154,3.1543,3.1545,3.1624,3.1608,3.172,3.1635,3.16,3.1627,3.1624,3.1704,3.1713,3.1741,3.1858,3.1863,3.1773,3.1778,3.1781,3.1783,0,0,0,0,0,0,0,3.1392,3.1409,3.158,3.1542,3.1545,3.1539,3.1551,3.1629,3.1667,3.1603,3.1602,3.1616,3.1704,3.1734,3.1743,3.1865,3.1773,3.1779,3.1784,3.1787,3.2067,3.207,0,0,0,0,0,0,3.1383,3.1403,3.1577,3.1584,3.1464,3.1545,3.1559,3.1602,3.1666,3.1673,3.1618,3.1614,3.1723,3.1735,3.1747,3.1868,3.1781,3.1787,3.1792,3.2064,3.2068,3.2071,0,0,0,0,0,0,3.1378,3.1399,3.1572,3.1493,3.1515,3.1553,3.1601,3.1605,3.1635,3.1677,3.1683,3.1642,3.1721,3.1737,3.1826,3.1871,3.1791,3.1797,3.206,3.2065,3.2069,3.2111,0,0,0,0,0,0,3.1372,3.1397,3.1438,3.1495,3.1519,3.1651,3.1604,3.161,3.1648,3.1644,3.1701,3.1708,3.172,3.1815,3.1833,3.188,3.1803,3.2056,3.2062,3.2068,3.2106,3.2117,3.2126,0,0,0,0,0,3.1363,3.1446,3.144,3.1461,3.1571,3.1654,3.1668,3.1681,3.1652,3.1691,3.1718,3.1706,3.1864,3.1825,3.1845,3.1894,3.2053,3.2061,3.2068,3.2102,3.2115,3.2126,0,0,0,0,0,0,3.1394,3.1454,3.1448,3.1552,3.1598,3.1651,3.1702,3.1696,3.175,3.1745,3.1758,3.1771,3.186,3.1887,3.1842,3.1994,3.1954,3.1966,3.1973,3.1986,3.1996,3.1987,3.1809,0,0,0,0,0,3.1413,3.1476,3.1525,3.1611,3.1635,3.1664,3.1701,3.1707,3.1755,3.1774,3.1807,3.1853,3.1912,3.1951,3.2009,3.2111,3.212,3.2154,3.2164,3.2172,3.2181,3.2232,3.2246,3.2094,3.2094,3.2094,0,0,3.1452,3.1493,3.1532,3.1618,3.1655,3.1717,3.1681,3.175,3.1796,3.1784,3.1869,3.1895,3.1947,3.2041,3.2085,3.2066,3.2225,3.2181,3.2187,3.2192,3.2241,3.2255,3.2268,3.2099,3.2098,3.2097,0,0,3.1555,3.1594,3.1668,3.1705,3.1761,3.178,3.1797,3.1851,3.1867,3.1953,3.1944,3.1999,3.2102,3.2138,3.217,3.2283,3.2272,3.2302,3.2353,3.2403,3.2415,3.2425,3.2462,3.2475,3.2311,3.2311,3.2311,0,3.1596,3.1693,3.1707,3.1776,3.1813,3.1806,3.1879,3.1914,3.1985,3.2009,3.1987,3.2114,3.2149,3.225,3.2277,3.2305,3.2322,3.2294,3.2412,3.2423,3.2433,3.2468,3.2482,3.2314,3.2314,3.2313,3.2313,0,3.1738,3.1805,3.1858,3.1926,3.1969,3.2041,3.2063,3.2105,3.2107,3.2127,3.2212,3.2253,3.2317,3.2342,3.2345,3.2442,3.2428,3.241,3.2369,3.245,3.2483,3.2497,3.2318,3.2317,3.2316,3.2315,0,0,3.1864,3.1938,3.1957,3.1986,3.2045,3.2096,3.2165,3.2228,3.2261,3.231,3.2366,3.2452,3.2434,3.247,3.2477,3.2522,3.2603,3.2497,3.2498,3.2512,3.2707,3.2718,3.2734,3.2598,3.26,3.2602,3.2702,0,3.1969,3.2092,3.2106,3.2215,3.2274,3.2267,3.2327,3.2368,3.2388,3.244,3.2462,3.2521,3.2496,3.2517,3.256,3.2584,3.2642,3.2578,3.2646,3.2648,3.263,3.2752,3.2764,3.2856,3.2715,3.2717,3.2719,0,3.2109,3.2161,3.2276,3.2323,3.2349,3.2403,3.2459,3.2509,3.2555,3.2566,3.2605,3.2606,3.2674,3.2633,3.2725,3.2681,3.2709,3.2725,3.2729,3.2733,3.2686,3.2755,3.2886,3.2898,3.274,3.2738,3.2737,0,3.2183,3.2282,3.2363,3.2388,3.2448,3.2485,3.2511,3.2554,3.2589,3.2638,3.2661,3.2717,3.2747,3.279,3.2804,3.2774,3.2894,3.2855,3.2902,3.2901,3.2925,3.2923,3.3058,3.295,3.295,3.295,3.2949,0,3.2298,3.2367,3.2396,3.2445,3.2521,3.2536,3.261,3.2634,3.2672,3.2723,3.2722,3.277,3.2787,3.2838,3.2849,3.2921,3.2936,3.2944,3.2946,3.2943,3.2941,3.2959,3.2952,3.2953,3.2952,3.2952,3.2951,0,3.2393,3.2416,3.2502,3.255,3.2564,3.2618,3.2658,3.2704,3.2723,3.2788,3.2804,3.2833,3.2892,3.2911,3.2982,3.299,3.3072,3.307,3.3057,3.3056,3.31,3.3094,3.325,3.3269,3.3151,3.3152,3.3153,0,3.2462,3.2515,3.2569,3.2603,3.2631,3.2687,3.2723,3.2738,3.2775,3.283,3.2868,3.2926,3.2973,3.3067,3.3093,3.3146,3.3143,3.3194,3.3151,3.3145,3.3139,3.3134,3.3138,3.3201,3.3202,3.3203,3.3204,0,3.2582,3.259,3.2643,3.2698,3.2741,3.2786,3.2828,3.2856,3.2878,3.2919,3.2979,3.3015,3.3087,3.3143,3.3197,3.3221,3.3215,3.3217,3.323,3.3226,3.3214,3.3217,3.3074,3.3213,3.3212,3.3212,3.3211,3.3211,3.2664,3.2709,3.2753,3.281,3.2844,3.2883,3.2927,3.2952,3.3002,3.3062,3.3068,3.3131,3.3172,3.3244,3.3271,3.3319,3.3305,3.3324,3.3329,3.3332,3.3334,3.3209,3.333,3.3329,3.3329,3.3329,3.3329,0,3.278,3.2808,3.286,3.292,3.2964,3.2956,3.3002,3.3038,3.3095,3.3134,3.318,3.3247,3.3301,3.3331,3.3384,3.3417,3.3415,3.343,3.3426,3.343,3.3346,3.3328,3.343,3.343,3.343,3.343,3.343,3.343,3.2845,3.292,3.2933,3.3023,3.3049,3.3112,3.3138,3.3173,3.3204,3.3279,3.3324,3.3344,3.3378,3.3434,3.3482,3.3489,3.3507,3.3523,3.3528,3.3448,3.3437,3.3427,3.341,3.3528,3.3528,3.3608,3.3609,3.3609]},{"header":{"parameterUnit":"m.s-1","parameterCategory":1,"la1":30.2991,"la2":30.254,"lo1":-89.0895,"lo2":-89.0444,"dy":0.0017,"dx":0.0017,"nx":28,"ny":28,"refTime":"2025-04-13T21:00:00:Z","depth":0,"parameterNumber":3,"parameterNumberName":"V-component_of_WINDS"},"data":[0,0,0,0,0,0,0,0,0,0,0,0,0,0,0,0,0,0,0,0,0,0,0,0,0,0,0,0,0,0,0,0,0,0,0,0,0,0,0,0,0,0,0,0,0,0,0,0,0,0,0,0,0,0,0,0,0,0,3.6578,3.6579,0,3.6661,3.6662,3.6663,3.661,3.6608,3.6605,3.6603,3.6684,3.6688,3.6692,0,0,0,0,0,0,0,0,0,0,0,0,0,3.6368,3.6372,3.6578,3.6579,3.658,3.6661,3.6662,3.6663,3.6611,3.6608,3.6605,3.6602,3.6682,3.6687,3.6693,0,0,0,0,0,0,0,0,0,0,0,0,0,3.6456,3.6374,3.6578,3.6564,3.6563,3.666,3.6662,3.6663,3.6611,3.6608,3.6604,3.66,3.668,3.6687,3.6693,3.6808,0,0,3.6714,3.6717,0,0,0,0,0,0,0,0,3.6451,3.6464,3.6565,3.6565,3.6565,3.6621,3.6617,3.6712,3.6612,3.6593,3.6603,3.6599,3.6666,3.6673,3.6697,3.6812,3.6815,3.6714,3.6718,3.6721,3.6723,0,0,0,0,0,0,0,3.6445,3.646,3.6611,3.6566,3.6566,3.6551,3.656,3.6635,3.6649,3.6594,3.6591,3.6601,3.6665,3.669,3.6698,3.6816,3.6714,3.672,3.6724,3.6727,3.7025,3.7029,0,0,0,0,0,0,3.6441,3.6455,3.6608,3.6613,3.6498,3.6558,3.6567,3.6607,3.6648,3.6651,3.6604,3.6599,3.6681,3.6691,3.6701,3.6835,3.6721,3.6727,3.6731,3.7021,3.7026,3.703,0,0,0,0,0,0,3.6437,3.6455,3.6605,3.6533,3.6551,3.6566,3.661,3.661,3.6636,3.6656,3.6657,3.6629,3.6678,3.6692,3.6781,3.6837,3.673,3.6736,3.7016,3.7023,3.7028,3.7106,0,0,0,0,0,0,3.6431,3.6454,3.6499,3.6535,3.6555,3.6686,3.6614,3.6615,3.6648,3.6641,3.6679,3.6681,3.6677,3.6771,3.6788,3.6845,3.6742,3.7011,3.7019,3.7026,3.7099,3.7114,3.7127,0,0,0,0,0,3.6424,3.6518,3.6502,3.652,3.6612,3.6689,3.67,3.6695,3.6653,3.6697,3.6709,3.668,3.6829,3.6781,3.6799,3.6859,3.7008,3.7017,3.7026,3.7092,3.7111,3.7127,0,0,0,0,0,0,3.6488,3.6522,3.6505,3.6614,3.6649,3.668,3.6736,3.6715,3.6762,3.6753,3.6743,3.6751,3.6844,3.686,3.6807,3.6969,3.6911,3.6924,3.6956,3.6974,3.6988,3.6982,3.6747,0,0,0,0,0,3.6515,3.6576,3.6602,3.6695,3.6714,3.6722,3.6755,3.6747,3.6783,3.6797,3.6816,3.685,3.6904,3.694,3.6991,3.7101,3.7106,3.715,3.7164,3.7176,3.7187,3.7243,3.7262,3.7059,3.7059,3.7059,0,0,3.6571,3.6597,3.6636,3.6709,3.6735,3.6796,3.6735,3.6803,3.6848,3.6807,3.6893,3.6907,3.6944,3.7044,3.7088,3.706,3.7244,3.7187,3.7196,3.7201,3.7254,3.7273,3.7291,3.7065,3.7064,3.7063,0,0,3.6704,3.6731,3.6811,3.6838,3.6879,3.6883,3.6902,3.6936,3.6945,3.7031,3.7,3.7052,3.7146,3.7173,3.7199,3.734,3.7313,3.7356,3.7431,3.7486,3.7502,3.7516,3.7564,3.7582,3.7367,3.7368,3.7368,0,3.6768,3.6861,3.6854,3.6924,3.6955,3.6922,3.7001,3.7027,3.7082,3.7103,3.7071,3.7186,3.7209,3.7313,3.7347,3.737,3.7389,3.7352,3.7501,3.7515,3.7527,3.7573,3.7591,3.7372,3.7372,3.7371,3.7371,0,3.6937,3.7002,3.7061,3.7115,3.7153,3.7227,3.7229,3.7268,3.7256,3.7263,3.7349,3.7375,3.7429,3.7453,3.7442,3.7555,3.7535,3.7502,3.7443,3.7552,3.7594,3.7612,3.7379,3.7378,3.7376,3.7375,0,0,3.7115,3.7162,3.7184,3.7207,3.7248,3.7297,3.7368,3.7422,3.7454,3.7493,3.755,3.7629,3.7598,3.7628,3.7619,3.7667,3.7774,3.7627,3.7628,3.7652,3.7897,3.7921,3.7941,3.7757,3.776,3.7763,3.7893,0,3.7249,3.7375,3.7369,3.7486,3.7543,3.7511,3.7572,3.7603,3.7611,3.7659,3.7667,3.7723,3.7678,3.7695,3.7742,3.7751,3.7823,3.7742,3.7808,3.7811,3.7799,3.7964,3.7991,3.8112,3.791,3.7912,3.7915,0,3.7423,3.7467,3.759,3.762,3.7644,3.77,3.7747,3.7795,3.7828,3.783,3.7862,3.7844,3.7913,3.7853,3.7946,3.7892,3.7918,3.7926,3.7931,3.7936,3.7869,3.7972,3.8151,3.8169,3.7941,3.7939,3.7937,0,3.7538,3.7628,3.7713,3.7734,3.7771,3.7811,3.7828,3.7857,3.7889,3.793,3.795,3.7998,3.8024,3.806,3.8055,3.8012,3.815,3.8089,3.8151,3.8151,3.8181,3.8179,3.8365,3.82,3.82,3.82,3.8199,0,3.7688,3.7764,3.7765,3.7817,3.7899,3.789,3.7972,3.7985,3.801,3.8062,3.8037,3.8085,3.8076,3.8124,3.8121,3.8197,3.8209,3.8211,3.8209,3.8213,3.8213,3.823,3.8221,3.8205,3.8204,3.8203,3.8202,0,3.7831,3.7835,3.7924,3.7952,3.796,3.802,3.8043,3.8091,3.8095,3.8161,3.8176,3.8183,3.8238,3.8237,3.8299,3.8296,3.839,3.8378,3.8379,3.8376,3.8438,3.8431,3.864,3.8666,3.8486,3.8487,3.8489,0,3.7926,3.7984,3.8018,3.8051,3.8071,3.8125,3.8157,3.8149,3.8184,3.8224,3.8266,3.8318,3.836,3.8449,3.8458,3.8505,3.8494,3.8564,3.8501,3.8502,3.8493,3.8489,3.8494,3.8576,3.8578,3.858,3.8581,0,3.8094,3.8093,3.8141,3.8189,3.8229,3.8266,3.83,3.8329,3.8324,3.8363,3.842,3.8452,3.8515,3.8567,3.8611,3.8626,3.8602,3.8601,3.8617,3.8621,3.8619,3.8619,3.8412,3.8596,3.8594,3.8593,3.8593,3.8592,3.8215,3.8264,3.8295,3.8348,3.8373,3.8405,3.8451,3.8461,3.8508,3.856,3.8552,3.8614,3.8642,3.8699,3.8718,3.8765,3.874,3.8764,3.877,3.8776,3.8782,3.8612,3.8773,3.8773,3.8772,3.8772,3.8771,0,3.838,3.8398,3.8448,3.8497,3.8538,3.8513,3.8549,3.8584,3.864,3.8669,3.871,3.8773,3.8822,3.8835,3.8882,3.8916,3.8906,3.8929,3.8926,3.8929,3.8803,3.8783,3.8936,3.8936,3.8936,3.8936,3.8936,3.8936,3.8471,3.8552,3.8553,3.8644,3.8661,3.8722,3.8745,3.8773,3.8796,3.8868,3.8909,3.8917,3.8938,3.8986,3.9029,3.9031,3.9049,3.9076,3.9073,3.8955,3.8938,3.8923,3.8904,3.908,3.908,3.9195,3.9197,3.9197]}]]